Regional Weather Roundup
Issued by NWS Sioux Falls, SD

Home | Current Version | Previous Version | Graphics & Text | Print | Product List | Glossary Off
Versions: 1 2 3 4 5 6 7 8 9 10 11 12 13 14 15 16 17 18 19 20 21 22 23 24 25 26 27 28 29 30 31 32 33 34 35 36 37 38 39 40 41 42 43 44 45 46 47 48 49 50

000
ASUS43 KFSD 300002
RWRFSD

WEATHER ROUNDUP FOR SE SOUTH DAKOTA/SW MINNESOTA/NW IOWA
NATIONAL WEATHER SERVICE SIOUX FALLS SD
700 PM CDT FRI AUG 29 2014

NOTE: "FAIR" INDICATES FEW OR NO CLOUDS BELOW 12,000 FEET WITH NO
SIGNIFICANT WEATHER AND OR OBSTRUCTIONS TO VISIBILITY.


SDZ038>040-050-052>070-300100-
SOUTHEAST SOUTH DAKOTA

CITY           SKY/WX    TMP DP  RH WIND       PRES   REMARKS
CHAMBERLAIN    PTSUNNY   79  55  44 N15G25    29.84R
6HR MIN TEMP:  77; 6HR MAX TEMP:  83;

HURON          PTSUNNY   77  65  66 N9        29.80R
6HR MIN TEMP:  70; 6HR MAX TEMP:  83; 6HR PCP:  0.21;

MADISON        FAIR      72  72 100 CALM      29.80R
MITCHELL       PTSUNNY   71  62  73 NW13      29.81R
6HR MIN TEMP:  71; 6HR MAX TEMP:  82;

SIOUX FALLS    CLOUDY    69  66  90 CALM      29.79R
6HR MIN TEMP:  65; 6HR MAX TEMP:  76; 6HR PCP:  0.51;

WINNER         FAIR      77  57  50 NW15      29.87R
YANKTON        CLOUDY    68  64  88 W5        29.78R
$$

MNZ071-072-080-081-089-090-097-098-300100-
SOUTHWEST MINNESOTA

CITY           SKY/WX    TMP DP  RH WIND       PRES   REMARKS
FAIRMONT       CLOUDY    70  64  83 NW6       29.77F
JACKSON        CLOUDY    70  66  88 CALM      29.79S
LUVERNE        CLOUDY    68  64  88 N3        29.79S
MARSHALL       CLOUDY    70  66  88 SW3       29.77S
6HR MIN TEMP:  70; 6HR MAX TEMP:  75; 6HR PCP:  0.14;

MONTEVIDEO     CLOUDY    73  73 100 CALM      29.77R
PIPESTONE      CLOUDY    70  66  88 CALM      29.79F
REDWOOD FALLS  LGT RAIN  67  64  90 SW6       29.76S
TRACY          LGT RAIN  68  67  96 CALM      29.79S
WINDOM         RAIN      66  64  94 CALM      29.78F
WORTHINGTON    CLOUDY    70  68  94 CALM      29.81R
$$

IAZ001>003-012>014-020>022-031-032-NEZ013-014-SDZ071-300100-
NORTHWEST IOWA

CITY           SKY/WX    TMP DP  RH WIND       PRES   REMARKS
CHEROKEE       RAIN      69  69  99 CALM      29.77S
DENISON        CLOUDY    66  66 100 SW9       29.76S
ESTHERVILLE    CLOUDY    71  67  87 N3        29.77F
LE MARS        CLOUDY    70  68  94 S3        29.77F
ORANGE CITY    LGT RAIN  70  66  88 CALM      29.78F
SHELDON        LGT RAIN  68  68 100 N5        29.78R
SIOUX CITY     CLOUDY    74  69  85 CALM      29.78R
6HR MIN TEMP:  73; 6HR MAX TEMP:  77; 6HR PCP: TRACE;

SPENCER        CLOUDY    70  67  90 W3        29.78F
6HR MIN TEMP:  68; 6HR MAX TEMP:  74; 6HR PCP:  0.16;

STORM LAKE     CLOUDY    70  70 100 CALM      29.78F
$$

ABBREVIATIONS USED IN REMARKS
   TC - TEMPERATURE IN CELSIUS
  WCI - WIND CHILL INDEX
   HX - HEAT INDEX
  VSB - VISIBILITY



USA.gov is the U.S. government's official web portal to all federal, state and local government web resources and services.